EHI
0 0 0 0 0 0 0 0 0 1 2 2 2 2 3 3 3 3 3 3 3 3 4 5 5 5 4 3 3 3 3 3 3 3 3 3 3 3 3 3 3 3 3
0 0 0 0 0 0 0 0 0 0 1 1 1 1 2 2 2 3 3 3 3 3 3 4 5 5 4 3 3 3 3 3 3 3 3 3 3 3 3 3 3 3 3
0 0 0 0 0 0 0 0 0 0 0 0 0 0 1 1 1 1 2 2 2 2 2 3 4 5 4 3 3 3 3 3 3 3 3 3 3 3 3 3 3 3 3
0 0 0 0 0 0 0 0 0 0 0 0 0 0 0 0 0 0 1 1 1 1 1 1 3 4 3 2 1 2 3 3 3 3 3 3 3 3 3 3 3 3 3
0 0 0 0 0 0 0 0 0 0 0 0 0 0 0 0 0 0 1 1 0 0 0 1 2 3 2 1 1 1 2 3 3 3 3 3 3 3 3 3 3 2 1
0 0 0 0 0 0 0 0 0 0 0 0 0 0 0 0 0 0 1 1 0 0 0 1 2 1 0 0 1 1 1 2 1 1 3 3 3 3 3 3 2 1 0
0 0 0 0 0 0 0 0 0 0 0 0 0 0 0 0 0 0 0 0 0 0 0 1 1 1 0 0 1 1 1 1 1 1 2 3 3 3 3 2 1 0 0
0 0 0 0 0 0 0 0 0 0 0 0 0 0 0 0 0 0 0 0 0 0 0 0 1 1 0 0 0 0 0 0 1 1 1 2 2 2 2 1 0 0 0
0 0 0 0 0 0 0 0 0 0 0 0 0 0 0 0 0 0 0 0 0 0 0 0 0 0 0 0 0 0 0 0 1 1 0 1 1 1 1 0 0 0 0
0 0 0 0 0 0 0 0 0 0 0 0 0 0 0 0 0 0 0 0 0 0 0 0 0 0 0 0 0 0 0 0 0 0 0 0 0 0 0 0 1 1 1
0 0 0 0 0 0 0 0 0 0 0 0 0 0 0 0 0 0 0 0 0 0 0 0 0 0 0 0 0 0 0 0 0 0 0 0 0 0 0 0 1 2 2
0 0 0 0 0 0 0 0 0 0 0 0 0 0 0 0 0 0 0 0 0 0 0 0 0 0 0 0 0 0 0 0 0 0 0 0 0 0 0 0 1 2 3
0 0 0 0 0 0 0 0 0 0 0 0 0 0 0 0 0 0 0 0 0 0 0 0 0 0 0 0 0 0 0 0 0 0 0 0 0 0 0 0 0 1 2
0 0 0 0 0 0 0 0 0 0 0 0 0 0 0 0 0 0 0 0 0 0 0 0 0 0 0 0 0 0 0 0 0 0 0 0 0 0 0 0 0 0 1
0 0 0 0 0 0 0 0 0 0 0 0 0 0 0 0 0 0 0 0 0 0 0 0 0 0 0 0 0 0 0 0 0 0 0 0 0 0 0 0 0 0 0
0 0 0 0 0 0 0 0 0 0 0 0 0 0 0 0 0 0 0 0 0 0 0 0 0 0 0 0 0 0 0 0 0 0 0 0 0 0 0 0 0 0 0
0 0 0 0 0 0 0 0 0 0 0 0 0 0 0 0 0 0 0 0 0 0 0 0 0 0 0 0 0 0 0 0 0 0 0 0 0 0 0 0 0 0 0
0 0 0 0 0 0 0 0 0 0 0 0 0 0 0 0 0 0 0 0 0 0 0 0 0 0 0 0 0 0 0 0 0 0 0 0 0 0 0 0 0 0 0
0 0 0 0 0 0 0 0 0 0 0 0 0 0 0 0 0 0 0 0 0 0 0 0 0 0 0 0 0 0 0 0 0 0 0 0 0 0 0 0 0 0 0
0 0 0 0 0 0 0 0 0 0 0 0 0 0 0 0 0 0 0 0 0 0 0 0 0 0 0 0 0 0 0 0 0 0 0 0 0 0 0 0 0 0 0
0 0 0 0 0 0 0 0 0 0 0 0 0 0 0 0 0 0 0 0 0 0 0 0 0 0 0 0 0 0 0 0 0 0 0 0 0 0 0 0 0 0 0
0 0 0 0 0 0 0 0 0 0 0 0 0 0 0 0 0 0 0 0 0 0 0 0 0 0 0 0 0 0 0 0 0 0 0 0 0 0 0 0 0 0 0
0 0 0 0 0 0 0 0 0 0 0 0 0 0 0 0 0 0 0 0 0 0 0 0 0 0 0 0 0 0 0 0 0 0 0 0 0 0 0 0 0 0 0
0 0 0 0 0 0 0 0 0 0 0 0 0 0 0 0 0 0 0 0 0 0 0 0 0 0 0 0 0 0 0 0 0 0 0 0 0 0 0 0 0 0 0
0 0 0 0 0 0 0 0 0 0 0 0 0 0 0 0 0 0 0 0 0 0 0 0 0 0 0 0 0 0 0 0 0 0 0 0 0 0 0 0 0 0 0
0 0 0 0 0 0 0 0 0 0 0 0 0 0 0 0 0 0 0 0 0 0 0 0 0 0 0 0 0 0 0 0 0 0 0 0 0 0 0 0 0 0 0
Wind_Speed
2 2 2 2 2 2 2 2 2 2 2 2 2 1 1 1 1 1 2 5 6 8 11 13 14 15 15 14 14 15 14 14 12 12 11 12 12 12 11 11 10 9 9
3 3 3 3 3 2 2 2 2 2 2 2 2 2 1 1 1 1 2 3 5 6 9 12 14 15 15 15 15 15 15 15 13 13 12 12 11 12 12 11 11 10 9
3 3 3 3 2 2 3 3 3 3 2 2 2 2 1 2 2 2 2 2 3 5 7 9 12 13 13 14 15 15 15 14 14 14 13 13 12 12 12 11 11 11 10
4 3 3 3 2 3 3 3 3 3 3 2 2 2 2 2 3 3 2 2 2 3 5 8 10 11 12 13 15 15 15 14 14 15 15 14 14 13 12 12 12 11 11
4 4 3 2 3 3 3 3 3 2 2 3 2 2 3 3 3 3 2 2 2 2 3 5 8 9 12 14 14 14 15 15 15 16 16 16 16 15 14 13 13 12 12
4 4 3 3 3 3 3 3 3 3 2 2 2 3 3 3 3 4 4 3 3 2 1 2 3 5 9 11 13 14 15 15 15 16 17 17 17 16 15 15 14 14 13
3 3 3 3 3 3 3 2 2 3 4 3 2 3 3 3 4 4 4 4 5 4 3 2 1 1 2 6 9 12 14 15 15 15 16 17 18 17 17 17 16 15 15
3 3 3 3 3 3 3 3 2 2 3 4 2 2 3 4 4 4 4 5 6 5 5 5 3 1 1 1 3 8 12 14 15 15 15 15 16 17 17 18 17 17 17
3 3 4 3 2 2 2 2 2 3 2 3 3 2 2 0 2 3 3 5 5 5 5 4 5 3 2 1 2 4 8 10 13 15 15 15 14 15 17 18 19 19 18
3 3 4 3 3 2 2 1 2 2 2 1 2 2 1 1 1 2 3 3 5 5 6 5 5 5 4 2 2 3 5 5 8 11 14 15 15 15 15 17 19 20 20
2 3 4 4 3 2 2 2 2 2 1 1 1 1 2 2 2 1 2 4 4 3 4 4 3 4 4 4 3 4 4 4 4 6 8 11 13 15 16 17 19 20 21
1 3 4 4 3 3 3 2 2 2 2 2 1 1 1 1 1 1 1 2 3 3 3 3 3 3 3 4 5 7 6 4 4 4 5 7 9 12 14 17 19 20 21
2 3 4 4 3 3 3 3 3 2 2 2 2 1 1 1 1 2 1 1 2 2 3 2 2 2 3 3 4 9 7 6 5 4 4 5 6 7 10 12 15 17 19
4 4 4 5 4 4 4 4 2 3 2 3 3 3 2 2 2 2 2 2 1 2 2 3 2 2 3 3 5 6 5 7 6 5 5 5 5 6 7 9 11 13 15
3 4 5 5 5 4 4 4 3 3 3 3 3 3 3 2 3 3 3 3 2 2 3 3 2 2 3 3 5 4 4 6 7 6 6 6 6 6 7 8 9 10 12
4 5 5 5 5 5 4 4 3 4 4 4 3 4 4 3 3 3 3 3 4 4 4 3 3 3 4 5 5 4 5 8 7 7 7 7 8 8 8 9 9 10 11
6 6 6 6 6 5 5 5 5 4 5 5 4 5 6 4 3 3 3 4 4 4 5 5 3 3 4 5 5 4 4 4 5 8 8 9 9 9 9 10 10 10 11
7 7 6 6 6 6 6 6 6 6 6 6 6 6 7 5 5 4 4 5 5 6 6 7 4 3 5 5 5 5 5 4 4 7 9 9 9 9 9 10 11 11 11
7 7 7 7 7 7 7 7 7 7 7 7 7 7 7 6 7 5 6 6 5 5 6 6 6 3 4 3 4 4 5 4 5 6 7 7 8 8 8 9 10 11 12
8 8 8 9 8 8 8 7 7 7 8 8 8 8 8 8 9 8 6 7 6 6 6 6 6 5 5 4 4 4 4 3 4 5 5 6 6 7 7 8 9 11 12
10 9 8 8 8 7 8 8 8 8 8 9 8 8 9 11 12 10 7 7 7 6 6 6 6 5 5 4 5 3 4 4 4 4 4 4 3 4 5 7 9 10 11
8 8 9 9 9 9 11 13 11 9 9 9 9 9 9 11 13 14 14 13 11 9 8 7 7 8 8 7 5 5 4 4 4 2 3 4 3 5 6 6 8 11 12
8 9 10 10 11 12 14 14 15 10 10 10 10 9 9 9 11 10 11 13 13 15 14 10 10 11 9 8 6 6 6 6 6 4 3 6 5 7 7 7 12 13 13
8 9 10 10 10 12 14 16 15 12 10 11 11 11 11 11 10 10 10 10 10 11 11 11 11 12 11 9 8 8 7 6 7 6 5 6 5 6 7 7 11 14 14
8 9 7 10 11 12 14 16 15 9 9 12 12 12 12 13 14 14 11 11 11 11 11 14 15 14 13 12 9 5 5 5 7 6 5 5 5 6 6 7 8 11 12
8 8 8 9 10 12 13 15 15 8 10 11 10 11 15 16 15 14 12 11 12 12 9 8 9 10 11 11 11 10 8 8 7 6 5 6 4 3 4 4 4 4 5
Wind_Direction
75 56 44 39 39 51 62 59 56 55 41 33 28 28 345 300 256 221 245 246 237 228 217 209 206 204 200 198 197 195 195 195 191 187 186 184 182 181 182 180 177 173 171
92 77 58 46 42 50 65 75 71 64 47 34 21 6 336 323 299 261 243 256 259 245 224 217 212 210 207 203 204 203 201 201 196 193 193 190 188 188 189 187 185 182 178
91 87 73 55 39 51 71 70 59 52 47 35 17 359 353 331 313 285 258 245 263 258 235 221 217 215 213 210 209 211 210 207 202 198 196 195 193 194 194 192 190 189 186
97 86 74 56 43 57 66 73 56 52 34 22 3 351 353 334 319 300 280 257 251 255 250 235 223 217 215 216 216 216 215 213 209 204 201 199 198 198 198 198 195 193 191
97 89 76 58 57 62 55 67 58 57 33 7 350 9 4 354 341 344 350 323 272 254 250 251 238 227 221 223 224 224 222 219 215 211 208 206 204 202 202 203 200 198 197
105 96 83 65 64 70 57 59 66 49 37 354 357 13 8 12 18 28 25 23 16 356 303 268 252 240 233 229 225 226 228 227 223 220 216 213 211 207 205 205 204 203 202
120 107 96 77 71 76 69 70 75 52 28 3 35 10 357 14 32 34 29 34 30 24 26 10 308 249 245 239 229 225 228 231 230 228 224 219 215 211 208 208 207 206 206
148 131 120 110 97 89 71 59 70 73 30 23 58 63 12 358 3 15 20 31 25 23 27 23 16 347 276 258 249 237 232 232 233 232 231 226 221 217 212 211 210 209 209
169 149 144 133 122 109 101 81 80 94 75 29 39 99 111 277 320 337 8 19 13 21 15 10 20 8 352 305 276 259 246 235 235 234 232 231 227 222 217 215 213 212 212
181 173 162 154 147 135 131 115 97 96 106 64 32 43 79 140 94 338 336 353 4 18 9 10 12 11 9 0 331 302 278 259 247 241 236 232 230 227 224 221 220 217 215
200 191 176 168 164 160 158 139 122 113 113 125 103 74 71 62 76 114 321 333 343 344 350 355 1 5 4 5 354 343 315 286 270 259 251 242 236 232 230 230 230 226 222
218 204 184 179 179 177 178 174 164 152 149 144 147 149 148 143 153 145 238 303 316 313 325 335 355 359 355 358 356 354 342 323 297 283 271 259 249 241 237 236 236 233 230
206 209 189 187 190 194 189 180 181 189 179 177 182 185 192 201 178 169 184 253 290 302 314 314 324 341 353 352 343 347 344 338 321 299 289 278 270 259 250 243 240 238 236
205 199 193 197 201 198 194 185 192 203 195 202 208 198 204 215 197 191 188 188 279 299 295 289 305 305 334 331 324 335 333 332 327 312 294 286 279 275 269 258 248 242 238
204 199 197 201 206 204 201 190 206 217 207 217 223 216 217 223 211 212 207 196 200 263 283 273 281 293 312 310 312 319 315 313 316 309 293 283 278 272 271 266 257 250 244
202 194 199 206 210 211 207 200 215 222 218 228 223 224 229 229 221 212 210 211 211 221 252 257 255 276 295 301 308 312 302 303 302 300 293 284 277 271 268 262 256 251 246
199 202 205 207 212 216 211 207 222 224 227 238 235 229 238 231 229 223 211 211 215 212 245 266 251 265 274 283 298 299 293 291 290 288 287 283 277 273 268 263 257 252 247
205 207 207 211 218 220 215 214 227 227 226 237 241 236 244 238 233 231 221 222 223 218 233 265 269 261 259 270 278 288 291 291 287 286 284 281 277 272 269 266 260 255 250
210 210 208 215 221 222 221 222 226 232 232 236 238 237 243 237 241 236 229 232 234 231 225 247 266 258 262 267 277 280 281 284 287 286 284 281 278 275 271 267 264 258 251
210 212 214 219 223 224 225 227 228 234 239 241 239 238 240 235 238 239 237 236 235 237 233 242 259 262 261 261 256 266 279 272 284 290 285 281 279 284 277 272 267 260 254
217 216 218 224 226 226 229 227 228 234 239 246 246 242 241 239 238 235 234 235 231 235 238 244 255 260 260 254 251 247 264 279 277 262 273 272 278 283 285 279 272 264 260
219 217 221 225 228 231 230 224 222 232 235 240 247 248 247 249 248 245 242 237 227 230 239 242 252 254 259 256 253 245 251 263 275 242 243 271 271 277 277 271 265 264 263
219 222 227 227 233 235 232 231 229 229 234 238 241 246 250 247 239 245 249 250 244 236 230 234 247 251 255 249 242 247 239 238 248 249 241 272 264 269 270 269 262 262 262
219 226 230 230 235 241 234 234 234 234 238 239 239 239 243 249 243 236 244 250 250 247 238 236 240 246 247 247 238 246 254 254 255 253 226 257 263 265 273 270 262 258 258
226 226 227 227 232 243 236 233 231 234 239 243 241 238 237 245 244 231 236 246 254 257 247 238 235 241 243 242 233 233 235 239 259 257 208 229 258 268 271 269 265 257 256
237 238 240 237 236 245 241 232 226 230 240 246 244 240 234 236 240 228 228 235 246 253 251 247 239 242 245 247 233 226 232 241 253 262 222 211 242 253 275 257 265 271 266